This demonstration page uses our WeatherBlox Daily Observations layout. Learn more.

Left ArrowRight Arrow

Hourly Observations for May 1, 2015

Temp ( °F °C ) Dew Point ( °F °C ) Humidity (%) Winds ( mph kmh ) Pressure ( in mb ) Visibility ( mi km ) Precip ( " mm )
12:52 am 00:52 Mostly Clear 56 13.3 40 4.4 55 55 SSE 8 13 30.04 1017 10 16 0.00 0.00
1:52 am 01:52 Partly Cloudy 55 12.8 40 4.4 57 57 SSE 8 13 30.03 1017 10 16 0.00 0.00
2:52 am 02:52 Partly Cloudy 56 13.3 39 3.9 53 53 SSE 9 15 30.02 1017 10 16 0.00 0.00
3:52 am 03:52 Partly Cloudy 55 12.8 39 3.9 55 55 SSE 8 13 30.04 1017 10 16 0.00 0.00
4:52 am 04:52 Mostly Cloudy 55 12.8 39 3.9 55 55 S 9 15 30.05 1018 10 16 0.00 0.00
5:52 am 05:52 Cloudy 56 13.3 39 3.9 53 53 SSE 8 13 30.06 1018 10 16 0.00 0.00
6:52 am 06:52 Mostly Cloudy 53 11.7 39 3.9 59 59 SSE 10 17 30.08 1019 10 16 0.00 0.00
7:52 am 07:52 Mostly Cloudy 56 13.3 39 3.9 53 53 S 5 7 30.10 1019 10 16 0.00 0.00
8:52 am 08:52 Cloudy 57 13.9 38 3.3 49 49 SSE 10 17 30.11 1020 10 16 0.00 0.00
9:52 am 09:52 Cloudy 58 14.4 40 4.4 51 51 SSE 8 13 30.11 1020 10 16 0.00 0.00
10:52 am 10:52 Cloudy with Light Rain 59 15 40 4.4 49 49 S 6 9 30.11 1020 10 16 0.00 0.03
11:52 am 11:52 Cloudy 58 14.4 43 6.1 58 58 SSE 7 11 30.11 1020 10 16 0.00 0.03
12:52 pm 12:52 Cloudy 60 15.6 43 6.1 53 53 E 6 9 30.10 1019 10 16 0.00 0.00
1:52 pm 13:52 Cloudy 59 15 43 6.1 56 56 ESE 8 13 30.09 1019 10 16 0.00 0.00
2:52 pm 14:52 Cloudy 59 15 45 7.2 60 60 ESE 6 9 30.06 1018 10 16 0.00 0.03
3:52 pm 15:52 Mostly Cloudy 63 17.2 45 7.2 52 52 ESE 9 15 30.03 1017 10 16 0.00 0.03
4:52 pm 16:52 Cloudy 66 18.9 45 7.2 47 47 SE 10 17 30.01 1016 10 16 0.00 0.00
5:52 pm 17:52 Cloudy 67 19.4 45 7.2 45 45 SE 10 17 30.00 1016 10 16 0.00 0.00
6:52 pm 18:52 Mostly Sunny 73 23 34 1 23 23 E 6 9 29.94 1014 10 16 0.00 0.00
7:52 pm 19:52 Mostly Cloudy 65 18.3 45 7.2 49 49 SE 13 20 29.99 1016 10 16 0.00 0.00
8:52 pm 20:52 Mostly Cloudy 63 17.2 45 7.2 52 52 SSE 8 13 29.99 1016 10 16 0.00 0.00
9:52 pm 21:52 Partly Cloudy 61 16.1 45 7.2 56 56 SSE 7 11 30.01 1016 10 16 0.00 0.00
10:52 pm 22:52 Partly Cloudy 57 13.9 45 7.2 64 64 SSE 8 13 30.00 1016 10 16 0.00 0.00
11:52 pm 23:52 Clear 57 14 45 7 63 63 SSE 6 9 30.00 1016 10 16 0.00 0.00

Powered by AerisWeather